Location: Karcze
(52.0945°N, 22.4786°E)
Time: 02:12:59
(UTC+00:00)

A-11 Canister half - Pass Details

Date: 09 August 2021
Orbit: 1514 x 1685 km, 47.2° (Epoch: 16 September)

Event Time Altitude Azimuth Distance (km) Brightness Sun altitude
Rises 11:47:33 0° 193° (SSW) 4,705 12.1 50.9°
Reaches altitude 10° 11:51:23 10° 180° (S) 3,750 11.8 50.6°
Maximum altitude 11:58:16 23° 133° (SE) 2,909 10.9 50.1°
Drops below altitude 10° 12:05:18 10° 86° (E) 3,862 11.0 49.5°
Sets 12:09:18 0° 73° (ENE) 4,878 11.3 49.1°
